[[{"header":{"parameterUnit":"m.s-1","parameterCategory":1,"la1":30.2991,"la2":30.254,"lo1":-89.0895,"lo2":-89.0444,"dx":0.0017,"dy":0.0017,"nx":28,"ny":28,"refTime":"2023-01-17T09:00:00:Z","depth":0,"parameterNumber":2,"parameterNumberName":"U-component_of_WINDS"},"data":[0,0,0,0,0,0,0,0,0,0,0,0,0,0,0,0,0,0,0,0,0,0,0,0,0,0,0,0,0,0,0,0,0,0,0,0,0,0,0,0,0,0,0,0,0,0,0,0,0,0,0,0,0,0,0,0,0,0,0.1305,0.1305,0,0.1369,0.137,0.1371,0.1332,0.133,0.1328,0.1326,0.1396,0.1399,0.1403,0,0,0,0,0,0,0,0,0,0,0,0,0,0.115,0.1153,0.1305,0.1305,0.1306,0.1369,0.137,0.1371,0.1332,0.133,0.1327,0.1325,0.1395,0.1399,0.1403,0,0,0,0,0,0,0,0,0,0,0,0,0,0.1216,0.1154,0.1304,0.1294,0.1294,0.1369,0.137,0.1371,0.1333,0.133,0.1327,0.1324,0.1393,0.1399,0.1404,0.1494,0,0,0.142,0.1423,0,0,0,0,0,0,0,0,0.1213,0.1222,0.1295,0.1295,0.1295,0.1339,0.1341,0.1412,0.1333,0.1318,0.1326,0.1323,0.138,0.1386,0.1404,0.1497,0.15,0.1421,0.1424,0.1427,0.1428,0,0,0,0,0,0,0,0.1208,0.1219,0.133,0.1296,0.1296,0.1287,0.1294,0.1354,0.1364,0.1319,0.1316,0.1324,0.1379,0.1399,0.1406,0.1501,0.1421,0.1426,0.1429,0.1431,0.167,0.1673,0,0,0,0,0,0,0.1204,0.1215,0.1328,0.1332,0.1246,0.1292,0.1299,0.1328,0.1363,0.1366,0.1327,0.1322,0.1391,0.1399,0.1408,0.1516,0.1426,0.1432,0.1435,0.1667,0.1671,0.1674,0,0,0,0,0,0,0.1201,0.1214,0.1326,0.1273,0.1287,0.1298,0.1331,0.1331,0.1351,0.1369,0.1371,0.1346,0.139,0.14,0.1472,0.1518,0.1434,0.1439,0.1663,0.1668,0.1672,0.1732,0,0,0,0,0,0,0.1196,0.1213,0.1247,0.1274,0.1289,0.1388,0.1333,0.1334,0.136,0.1355,0.1387,0.139,0.1388,0.1464,0.1478,0.1524,0.1443,0.1659,0.1665,0.1671,0.1726,0.1738,0.1748,0,0,0,0,0,0.1191,0.1262,0.1249,0.1263,0.1332,0.1391,0.14,0.1396,0.1364,0.1398,0.1409,0.1389,0.151,0.1472,0.1487,0.1535,0.1656,0.1664,0.167,0.1721,0.1736,0.1748,0,0,0,0,0,0,0.1241,0.1265,0.1251,0.1333,0.136,0.1384,0.1428,0.1411,0.1449,0.1443,0.1437,0.1445,0.152,0.1534,0.1492,0.1624,0.1578,0.1589,0.1612,0.1626,0.1637,0.1633,0.1448,0,0,0,0,0,0.1262,0.1307,0.1326,0.1396,0.141,0.1417,0.1442,0.1436,0.1465,0.1477,0.1493,0.1522,0.1567,0.1597,0.1639,0.1727,0.1734,0.1767,0.1778,0.1788,0.1797,0.1846,0.1861,0.1697,0.1697,0.1697,0,0,0.1305,0.1323,0.1353,0.1406,0.1427,0.1475,0.1427,0.1479,0.1515,0.1485,0.1554,0.1567,0.1599,0.168,0.1716,0.1694,0.1844,0.1796,0.1804,0.1809,0.1854,0.187,0.1884,0.1702,0.1701,0.17,0,0,0.1408,0.1426,0.1487,0.1508,0.1539,0.1542,0.1557,0.1584,0.1591,0.1659,0.1638,0.168,0.1757,0.1781,0.1804,0.1914,0.1897,0.1928,0.1988,0.2035,0.2048,0.2059,0.21,0.2115,0.1937,0.1937,0.1937,0,0.1459,0.1529,0.1521,0.1575,0.16,0.1573,0.1635,0.1656,0.1699,0.1718,0.1691,0.1787,0.1807,0.1893,0.192,0.1938,0.1956,0.1926,0.2046,0.2058,0.2068,0.2107,0.2122,0.1941,0.1941,0.194,0.194,0,0.159,0.1639,0.1684,0.1726,0.1756,0.1814,0.1815,0.1846,0.1837,0.1843,0.1914,0.1936,0.1982,0.2002,0.1994,0.2087,0.2072,0.2046,0.2001,0.2088,0.2124,0.2139,0.1946,0.1945,0.1944,0.1943,0,0,0.1729,0.1764,0.1781,0.18,0.1831,0.187,0.1926,0.197,0.1997,0.2028,0.2076,0.2141,0.2117,0.2142,0.2137,0.2178,0.2265,0.2147,0.2147,0.217,0.237,0.2391,0.2408,0.2253,0.2256,0.2258,0.2368,0,0.1835,0.1934,0.1928,0.2021,0.2066,0.2041,0.209,0.2115,0.2122,0.2163,0.217,0.2217,0.2181,0.2196,0.2235,0.2247,0.2306,0.2238,0.2299,0.2302,0.2294,0.2427,0.245,0.2553,0.2382,0.2384,0.2386,0,0.1973,0.2008,0.2105,0.2129,0.2148,0.2193,0.2233,0.2271,0.2299,0.2301,0.2329,0.2316,0.2374,0.2326,0.2406,0.236,0.2384,0.2393,0.2397,0.2405,0.2351,0.244,0.2585,0.2602,0.2408,0.2407,0.2405,0,0.2067,0.2137,0.2205,0.2221,0.2251,0.2283,0.2297,0.2322,0.2349,0.2384,0.2401,0.2442,0.2466,0.2498,0.2497,0.2462,0.2579,0.253,0.2584,0.2584,0.2612,0.2611,0.2765,0.2624,0.2624,0.2624,0.2623,0,0.2188,0.2249,0.2247,0.2289,0.2357,0.2349,0.2416,0.2427,0.2449,0.2493,0.2472,0.2514,0.2509,0.2552,0.2551,0.2619,0.2629,0.2633,0.2633,0.2636,0.2636,0.2654,0.2648,0.2628,0.2627,0.2626,0.2625,0,0.2305,0.2306,0.2378,0.24,0.2407,0.2456,0.2475,0.2515,0.2519,0.2575,0.2588,0.2595,0.2644,0.2645,0.2702,0.2701,0.2784,0.2774,0.2774,0.2773,0.2828,0.2823,0.3001,0.3024,0.2866,0.2868,0.2869,0,0.2383,0.243,0.2456,0.2483,0.2499,0.2544,0.2571,0.2564,0.2593,0.2628,0.2664,0.271,0.2747,0.2826,0.2837,0.288,0.2872,0.2931,0.2879,0.2881,0.2875,0.2873,0.2878,0.2942,0.2944,0.2946,0.2947,0,0.2522,0.252,0.2559,0.2599,0.2631,0.2662,0.2691,0.2715,0.2711,0.2745,0.2794,0.2823,0.2879,0.2926,0.2967,0.2982,0.2965,0.2963,0.2978,0.2983,0.2982,0.2985,0.2805,0.2959,0.2958,0.2957,0.2957,0.2956,0.2624,0.2664,0.2688,0.2733,0.2753,0.278,0.2819,0.2828,0.2868,0.2913,0.2906,0.2961,0.2987,0.3041,0.3059,0.3102,0.3082,0.3103,0.3109,0.3115,0.3122,0.2973,0.3109,0.3109,0.3109,0.3108,0.3108,0,0.2763,0.2777,0.2818,0.2858,0.2893,0.2871,0.2902,0.2933,0.2981,0.3007,0.3043,0.3099,0.3144,0.3158,0.3201,0.3233,0.3227,0.3245,0.3244,0.3248,0.3137,0.312,0.325,0.325,0.325,0.325,0.325,0.325,0.284,0.2907,0.2907,0.2984,0.2998,0.3051,0.3071,0.3096,0.3116,0.3179,0.3216,0.3224,0.3245,0.329,0.333,0.3333,0.3351,0.3374,0.3374,0.327,0.3256,0.3242,0.3227,0.3377,0.3377,0.3482,0.3483,0.3483]},{"header":{"parameterUnit":"m.s-1","parameterCategory":1,"la1":30.2991,"la2":30.254,"lo1":-89.0895,"lo2":-89.0444,"dx":0.0017,"dy":0.0017,"nx":28,"ny":28,"refTime":"2023-01-17T09:00:00:Z","depth":0,"parameterNumber":3,"parameterNumberName":"V-component_of_WINDS"},"data":[0,0,0,0,0,0,0,0,0,0,0,0,0,0,0,0,0,0,0,0,0,0,0,0,0,0,0,0,0,0,0,0,0,0,0,0,0,0,0,0,0,0,0,0,0,0,0,0,0,0,0,0,0,0,0,0,0,0,3.1804,3.1806,0,3.192,3.1921,3.1923,3.191,3.1909,3.1907,3.1905,3.2022,3.2027,3.2032,0,0,0,0,0,0,0,0,0,0,0,0,0,3.1571,3.1575,3.1804,3.1806,3.1807,3.192,3.1921,3.1923,3.1911,3.1908,3.1906,3.1904,3.2021,3.2026,3.2032,0,0,0,0,0,0,0,0,0,0,0,0,0,3.1678,3.1577,3.1804,3.1815,3.1817,3.192,3.1921,3.1923,3.1911,3.1908,3.1906,3.1903,3.2019,3.2026,3.2033,3.2132,0,0,3.2055,3.2058,0,0,0,0,0,0,0,0,3.1672,3.1686,3.1812,3.1814,3.1817,3.1898,3.1882,3.1993,3.1912,3.1875,3.1905,3.1902,3.1983,3.1993,3.2021,3.2138,3.2143,3.2056,3.206,3.2063,3.2065,0,0,0,0,0,0,0,3.1664,3.1681,3.185,3.1813,3.1816,3.1813,3.1825,3.1903,3.1943,3.1878,3.1878,3.1892,3.1984,3.2014,3.2023,3.2145,3.2056,3.2062,3.2066,3.2069,3.2348,3.2351,0,0,0,0,0,0,3.1655,3.1675,3.1846,3.1853,3.1736,3.1819,3.1833,3.1875,3.1942,3.195,3.1894,3.1891,3.2003,3.2015,3.2027,3.2148,3.2063,3.207,3.2074,3.2345,3.2349,3.2352,0,0,0,0,0,0,3.165,3.167,3.1842,3.1764,3.1786,3.1826,3.1873,3.1878,3.1908,3.1954,3.1961,3.1917,3.2001,3.2017,3.2106,3.2152,3.2073,3.208,3.2341,3.2346,3.235,3.239,0,0,0,0,0,0,3.1643,3.1668,3.1707,3.1765,3.179,3.1919,3.1876,3.1883,3.1921,3.1918,3.1978,3.1985,3.2,3.2096,3.2113,3.2161,3.2085,3.2337,3.2343,3.2349,3.2385,3.2396,3.2405,0,0,0,0,0,3.1635,3.1714,3.1709,3.173,3.1839,3.1922,3.1936,3.1953,3.1925,3.1964,3.1993,3.1983,3.2144,3.2105,3.2125,3.2175,3.2335,3.2342,3.2348,3.2381,3.2394,3.2405,0,0,0,0,0,0,3.166,3.1721,3.1717,3.1817,3.1865,3.192,3.197,3.1966,3.2022,3.2016,3.2034,3.2047,3.2137,3.2165,3.212,3.2274,3.2235,3.2247,3.2253,3.2266,3.2275,3.2267,3.2091,0,0,0,0,0,3.1677,3.1739,3.179,3.1873,3.1897,3.1929,3.1966,3.1974,3.2024,3.2043,3.2079,3.2127,3.2188,3.2228,3.2287,3.2388,3.2401,3.2433,3.2442,3.245,3.246,3.2515,3.253,3.2375,3.2375,3.2375,0,0,3.1713,3.1754,3.1793,3.1879,3.1917,3.198,3.1946,3.2015,3.2063,3.2054,3.214,3.2168,3.2222,3.2318,3.2362,3.2344,3.2505,3.2459,3.2465,3.2471,3.2524,3.2538,3.2552,3.2379,3.2379,3.2378,0,0,3.1812,3.1849,3.1923,3.1961,3.2018,3.2039,3.2057,3.2112,3.2131,3.2218,3.2212,3.2268,3.2373,3.2412,3.2446,3.2558,3.2551,3.2576,3.2628,3.2682,3.2694,3.2705,3.2745,3.2759,3.2586,3.2586,3.2586,0,3.1849,3.1946,3.1961,3.2031,3.2069,3.2064,3.2138,3.2174,3.2248,3.2273,3.2252,3.2384,3.242,3.2524,3.2551,3.2579,3.2599,3.257,3.2691,3.2702,3.2712,3.2751,3.2766,3.2588,3.2588,3.2588,3.2588,0,3.1989,3.2056,3.2109,3.218,3.2224,3.2295,3.2321,3.2363,3.2367,3.2389,3.2477,3.2521,3.2588,3.2613,3.2618,3.2718,3.2705,3.2687,3.2649,3.273,3.2766,3.2781,3.2592,3.2591,3.2591,3.259,0,0,3.2109,3.2187,3.2206,3.2238,3.23,3.2352,3.2422,3.2488,3.2524,3.2574,3.2634,3.2722,3.2706,3.2744,3.2753,3.28,3.2885,3.2776,3.2777,3.2795,3.2998,3.3012,3.3029,3.288,3.2883,3.2886,3.2994,0,3.2214,3.234,3.2356,3.2468,3.2529,3.2524,3.2586,3.263,3.2653,3.2708,3.2732,3.2795,3.2768,3.2791,3.2837,3.2865,3.2926,3.2857,3.2936,3.2939,3.2924,3.3048,3.3063,3.3163,3.3008,3.301,3.3012,0,3.2354,3.2409,3.2527,3.258,3.2606,3.2662,3.2723,3.2776,3.2825,3.2838,3.288,3.2882,3.2955,3.2912,3.3012,3.2965,3.2997,3.3015,3.302,3.3028,3.2981,3.306,3.3195,3.321,3.3035,3.3033,3.3031,0,3.243,3.2533,3.2617,3.2644,3.2708,3.2747,3.2775,3.2822,3.286,3.2913,3.2938,3.2999,3.3032,3.3079,3.3097,3.3064,3.3195,3.3154,3.3208,3.3207,3.3237,3.3235,3.3379,3.3256,3.3256,3.3256,3.3255,0,3.2547,3.2619,3.2652,3.2703,3.2784,3.28,3.2879,3.2906,3.2947,3.3004,3.3002,3.3055,3.3075,3.3131,3.3145,3.3225,3.324,3.3252,3.3255,3.3253,3.3252,3.3276,3.3269,3.326,3.3259,3.3258,3.3257,0,3.2646,3.267,3.2761,3.2814,3.2829,3.2886,3.2931,3.298,3.3001,3.3072,3.309,3.3123,3.3189,3.3211,3.329,3.3299,3.3393,3.3389,3.3376,3.3377,3.3429,3.3424,3.3595,3.3618,3.3479,3.348,3.3481,0,3.2719,3.2775,3.2833,3.2871,3.2901,3.2961,3.3001,3.3018,3.3058,3.3118,3.3161,3.3225,3.3278,3.3382,3.3413,3.3473,3.3472,3.3527,3.3481,3.3477,3.3473,3.347,3.3476,3.3537,3.3538,3.3539,3.354,0,3.2847,3.2856,3.2913,3.2974,3.302,3.3069,3.3116,3.3147,3.3171,3.3216,3.3283,3.3324,3.3404,3.3469,3.353,3.3558,3.3553,3.3554,3.357,3.3569,3.3559,3.3565,3.3401,3.3551,3.355,3.3549,3.3548,3.3548,3.2936,3.2985,3.3034,3.3097,3.3134,3.3177,3.3227,3.3254,3.331,3.3377,3.3383,3.3455,3.3502,3.3584,3.3615,3.367,3.3655,3.3677,3.3683,3.3689,3.3693,3.3549,3.3681,3.3681,3.3681,3.3681,3.368,0,3.3064,3.3095,3.3153,3.3218,3.3268,3.3259,3.331,3.3351,3.3415,3.3459,3.3511,3.3587,3.3649,3.3684,3.3746,3.3784,3.3783,3.38,3.3797,3.3804,3.3703,3.3684,3.3799,3.3799,3.3799,3.3799,3.3799,3.3799,3.3137,3.322,3.3234,3.3335,3.3365,3.3436,3.3466,3.3506,3.3541,3.3626,3.3678,3.37,3.3741,3.3805,3.3861,3.3869,3.3892,3.3911,3.3918,3.3823,3.3811,3.38,3.3781,3.3915,3.3915,3.4014,3.4015,3.4015]}]]